Tracking 28514 objects as of 24-Feb-2024
HD Live streaming from Space Station
objects crossing your sky now

ARIANE 5 R/B

Track ARIANE 5 R/B now!


NORAD ID: 39080
Int'l Code: 2013-006C
Perigee: 274.3 km
Apogee: 34,089.1 km
Inclination: 6.6 °
Period: 599.5 minutes
Semi major axis: 23552 km
RCS: 25.327 m2 (large)
Launch date: February 7, 2013
Source: France (FR)
Launch site: FRENCH GUIANA (FRGUI)

Note: This is a ROCKET BODY
Your satellite tracking list
Your tracking list is empty




NASA's NSSDC Master Catalog

Two Line Element Set (TLE):
1 39080U 13006C   24054.53725170  .00006012  00000-0  23803-2 0  9992
2 39080   6.5613   4.3273 7178523 335.6729   2.7706  2.40182653 94220
Source of the keplerian elements: AFSPC